Probability
0 0 0 0 0 0 0 0 0 0 0 0 0 0 0 0 0 0 0 0 0 0 0 0 0 0 0 0 0 0 0 0 0 0 0 0 0 0 0 0 0 0 0
0 0 0 0 0 0 0 0 0 0 0 0 0 0 0 0 0 0 0 0 0 0 0 0 0 0 0 0 0 0 0 0 0 0 0 0 0 0 0 0 0 0 0
0 0 0 0 0 0 0 0 0 0 0 0 0 0 0 0 0 0 0 0 0 0 0 0 0 0 0 0 0 0 0 0 0 0 0 0 0 0 0 0 0 0 0
0 0 0 0 0 0 0 0 0 0 0 0 0 0 0 0 0 0 0 0 0 0 0 0 0 0 0 0 0 0 0 0 0 0 0 0 0 0 0 0 0 0 0
0 0 0 0 0 0 0 0 0 0 0 0 0 0 0 0 0 0 0 0 0 0 0 0 0 0 0 0 0 0 0 0 0 0 0 0 0 0 0 0 0 0 0
0 0 0 0 0 0 0 0 0 0 0 0 0 0 0 0 0 0 0 0 0 0 0 0 0 0 0 0 0 0 0 0 0 0 0 0 0 0 0 0 0 0 0
0 0 0 0 0 0 0 0 0 0 0 0 0 0 0 0 0 0 0 0 0 0 0 0 0 0 0 0 0 0 0 0 0 0 0 0 0 0 0 0 0 0 0
0 0 0 0 0 0 0 0 0 0 0 0 0 0 0 0 0 0 0 0 0 0 0 0 0 0 0 0 0 0 0 0 0 0 0 0 0 0 0 0 0 0 0
0 0 0 0 0 0 0 0 0 0 0 0 0 0 0 0 0 0 0 0 0 0 0 0 0 0 0 0 0 0 0 0 0 0 0 0 0 0 0 0 0 0 0
0 0 0 0 0 0 0 0 0 0 0 0 0 0 0 0 0 0 0 0 0 0 0 0 0 0 0 0 0 0 0 0 0 0 0 0 0 0 0 0 0 0 0
0 0 0 0 0 0 0 0 0 0 0 0 0 0 0 0 0 0 0 0 0 0 0 0 0 0 0 0 0 0 0 0 0 0 0 0 0 0 0 0 0 0 0
0 0 0 0 0 0 0 0 0 0 0 0 0 0 0 0 0 0 0 0 0 0 0 0 0 0 0 0 0 0 0 0 0 0 0 0 0 0 0 0 0 0 0
0 0 0 0 0 0 0 0 0 0 0 0 0 0 0 0 0 0 0 0 0 0 0 0 0 0 0 0 0 0 0 0 0 0 0 0 0 0 0 0 0 0 0
0 0 0 0 0 0 0 0 0 0 0 0 0 0 0 0 0 0 0 0 0 0 0 0 0 0 0 0 0 0 0 0 0 0 0 0 0 0 0 0 0 0 0
0 0 0 0 0 0 0 0 0 0 0 0 0 0 0 0 0 0 0 0 0 0 0 0 0 0 0 0 0 0 0 0 0 0 0 0 0 0 0 0 0 0 0
0 0 0 0 0 0 0 0 0 0 0 0 0 0 0 0 0 0 0 0 0 0 0 0 0 0 0 0 0 0 0 0 0 0 0 0 0 0 0 0 0 0 0
0 0 0 0 0 0 0 0 0 0 0 0 0 0 0 0 0 0 0 0 0 0 0 0 0 0 0 0 0 0 0 0 0 0 0 0 0 0 0 0 0 0 0
0 0 0 0 0 0 0 0 0 0 0 0 0 0 0 0 0 0 0 0 0 0 0 0 0 0 0 0 0 0 0 0 0 0 0 0 0 0 0 0 0 0 0
0 0 0 0 0 0 0 0 0 0 0 0 0 0 0 0 0 0 0 0 0 0 0 0 0 0 0 0 0 0 0 0 0 0 0 0 0 0 0 0 0 0 0
0 0 0 0 0 0 0 0 0 0 0 0 0 0 0 0 0 0 0 0 0 0 0 0 0 0 0 0 0 0 0 0 0 0 0 0 0 0 0 0 0 0 0
0 0 0 0 0 0 0 0 0 0 0 0 0 0 0 0 0 0 0 0 0 0 0 0 0 0 0 0 0 0 0 0 0 0 0 0 0 0 0 0 0 0 0
0 0 0 0 0 0 0 0 0 0 0 0 0 0 0 0 0 0 0 0 0 0 0 0 0 0 0 0 0 0 0 0 0 0 0 0 0 0 0 0 0 0 0
0 0 0 0 0 0 0 0 0 0 0 0 0 0 0 0 0 0 0 0 0 0 0 0 0 0 0 0 0 0 0 0 0 0 0 0 0 0 0 0 0 0 0
0 0 0 0 0 0 0 0 0 0 0 0 0 0 0 0 0 0 0 0 0 0 0 0 0 0 0 0 0 0 0 0 0 0 0 0 0 0 0 0 0 0 0
0 0 0 0 0 0 0 0 0 0 0 0 0 0 0 0 0 0 0 0 0 0 0 0 0 0 0 0 0 0 0 0 0 0 0 0 0 0 0 0 0 0 0
0 0 0 0 0 0 0 0 0 0 0 0 0 0 0 0 0 0 0 0 0 0 0 0 0 0 0 0 0 0 0 0 0 0 0 0 0 0 0 0 0 0 0
Height
5834 5833 5831 5830 5828 5826 5825 5823 5821 5819 5817 5816 5814 5812 5810 5807 5805 5803 5800 5798 5795 5792 5790 5787 5785 5783 5782 5780 5779 5778 5777 5776 5776 5776 5777 5777 5778 5779 5780 5781 5783 5785 5787
5827 5825 5824 5822 5820 5819 5817 5816 5814 5812 5809 5807 5805 5803 5801 5799 5796 5793 5790 5788 5785 5782 5779 5776 5774 5772 5770 5768 5766 5765 5764 5763 5763 5763 5763 5764 5765 5766 5767 5768 5770 5772 5773
5819 5818 5816 5814 5812 5810 5809 5807 5805 5803 5800 5798 5795 5793 5791 5788 5786 5783 5780 5777 5774 5771 5768 5765 5762 5759 5757 5755 5753 5752 5751 5750 5749 5749 5749 5749 5750 5751 5752 5754 5756 5758 5760
5810 5809 5807 5805 5802 5801 5799 5797 5795 5793 5790 5788 5785 5782 5780 5778 5775 5772 5769 5765 5762 5759 5755 5752 5749 5746 5743 5741 5739 5738 5737 5735 5735 5734 5734 5734 5735 5736 5737 5739 5740 5743 5745
5800 5798 5797 5795 5792 5790 5789 5786 5784 5781 5779 5776 5773 5771 5769 5766 5763 5760 5757 5753 5750 5746 5742 5739 5735 5732 5729 5727 5725 5723 5722 5721 5720 5719 5719 5719 5720 5720 5722 5723 5725 5726 5729
5790 5788 5787 5784 5781 5779 5777 5775 5772 5770 5767 5763 5760 5759 5756 5753 5751 5748 5743 5740 5737 5733 5729 5725 5721 5718 5715 5713 5710 5708 5707 5706 5705 5704 5703 5703 5704 5704 5705 5707 5708 5710 5712
5780 5778 5776 5773 5770 5768 5765 5763 5760 5757 5754 5749 5746 5745 5743 5740 5738 5734 5729 5726 5723 5718 5715 5711 5707 5704 5701 5698 5695 5693 5692 5691 5689 5688 5688 5688 5688 5688 5689 5690 5691 5693 5695
5770 5767 5765 5762 5758 5755 5753 5750 5746 5743 5740 5736 5732 5728 5727 5728 5724 5719 5716 5712 5708 5704 5700 5696 5692 5689 5686 5683 5680 5678 5676 5675 5674 5673 5672 5672 5672 5672 5672 5673 5674 5676 5677
5759 5756 5753 5749 5746 5742 5739 5736 5732 5728 5725 5722 5717 5712 5709 5709 5708 5707 5703 5699 5694 5690 5686 5681 5677 5674 5671 5668 5664 5662 5660 5659 5658 5657 5656 5656 5655 5655 5656 5656 5657 5659 5660
5747 5743 5740 5736 5732 5729 5725 5721 5717 5713 5708 5706 5702 5698 5694 5690 5687 5687 5688 5684 5679 5675 5671 5666 5662 5659 5655 5652 5649 5646 5644 5642 5641 5640 5639 5639 5638 5638 5638 5639 5640 5641 5642
5734 5730 5726 5722 5718 5714 5711 5706 5701 5697 5693 5689 5686 5682 5678 5674 5669 5665 5666 5666 5662 5659 5654 5650 5646 5643 5639 5635 5632 5629 5627 5626 5624 5623 5622 5621 5621 5621 5621 5621 5622 5623 5624
5721 5716 5712 5708 5704 5700 5695 5691 5685 5681 5677 5673 5668 5664 5660 5657 5654 5648 5644 5644 5643 5641 5636 5633 5630 5626 5621 5617 5614 5611 5609 5608 5607 5605 5605 5604 5603 5603 5602 5603 5603 5604 5605
5707 5702 5696 5692 5688 5683 5678 5673 5669 5664 5659 5655 5651 5646 5642 5639 5635 5630 5626 5624 5621 5620 5617 5615 5612 5607 5603 5599 5595 5592 5591 5590 5589 5587 5586 5585 5585 5584 5584 5583 5583 5584 5584
5692 5687 5681 5676 5671 5666 5661 5655 5651 5646 5641 5637 5632 5628 5623 5620 5616 5612 5608 5603 5600 5600 5598 5597 5593 5588 5583 5579 5576 5573 5572 5571 5569 5568 5567 5566 5565 5565 5564 5563 5563 5563 5563
5677 5671 5665 5660 5654 5648 5643 5637 5633 5628 5623 5618 5613 5609 5604 5601 5596 5592 5588 5584 5580 5578 5579 5578 5573 5569 5563 5559 5556 5554 5553 5551 5550 5549 5547 5546 5545 5544 5543 5543 5542 5541 5541
5661 5655 5649 5642 5636 5630 5624 5618 5614 5609 5603 5599 5594 5589 5585 5581 5576 5572 5568 5565 5560 5557 5557 5559 5554 5549 5544 5540 5536 5534 5533 5531 5530 5529 5527 5526 5525 5523 5522 5521 5519 5518 5518
5645 5638 5631 5625 5618 5612 5605 5599 5594 5589 5583 5579 5574 5569 5565 5560 5556 5552 5548 5544 5541 5537 5536 5538 5533 5529 5525 5521 5517 5514 5513 5512 5510 5508 5507 5505 5503 5502 5500 5498 5496 5495 5494
5626 5619 5612 5605 5599 5592 5585 5579 5574 5568 5563 5559 5554 5548 5545 5539 5536 5531 5527 5524 5521 5517 5515 5516 5514 5509 5505 5501 5498 5495 5494 5492 5490 5488 5486 5484 5482 5479 5477 5475 5473 5471 5469
5606 5599 5591 5585 5578 5571 5564 5558 5552 5547 5542 5538 5533 5528 5524 5518 5515 5511 5507 5504 5501 5498 5495 5495 5494 5490 5486 5482 5478 5477 5474 5472 5470 5468 5465 5463 5460 5457 5454 5452 5449 5447 5445
5585 5578 5570 5562 5555 5549 5542 5535 5530 5525 5521 5516 5512 5507 5503 5498 5494 5490 5487 5485 5481 5478 5476 5474 5473 5471 5467 5463 5459 5457 5455 5452 5450 5447 5444 5441 5438 5435 5432 5429 5426 5423 5420
5562 5554 5547 5539 5532 5525 5518 5512 5507 5503 5499 5495 5490 5486 5482 5477 5474 5470 5468 5466 5462 5460 5457 5455 5454 5451 5449 5444 5440 5437 5435 5432 5430 5427 5423 5420 5417 5415 5410 5406 5402 5398 5395
5539 5530 5522 5515 5508 5501 5494 5489 5484 5481 5477 5473 5469 5465 5460 5457 5454 5451 5449 5446 5444 5442 5439 5436 5434 5432 5429 5424 5420 5417 5415 5413 5413 5408 5402 5401 5396 5394 5389 5384 5380 5376 5371
5516 5507 5499 5491 5485 5478 5471 5467 5462 5458 5456 5452 5448 5444 5441 5438 5434 5432 5430 5428 5426 5423 5421 5418 5416 5413 5409 5405 5401 5398 5395 5393 5392 5388 5382 5381 5376 5373 5368 5363 5359 5353 5348
5493 5485 5477 5469 5463 5457 5450 5446 5441 5438 5435 5432 5429 5426 5423 5420 5416 5414 5412 5410 5407 5404 5401 5398 5398 5395 5390 5386 5382 5379 5375 5373 5372 5368 5361 5360 5356 5352 5348 5344 5338 5331 5324
5471 5463 5456 5448 5442 5437 5431 5427 5423 5420 5418 5414 5411 5408 5405 5403 5399 5396 5395 5394 5391 5387 5382 5379 5377 5375 5372 5367 5363 5359 5356 5354 5353 5350 5342 5338 5336 5331 5329 5325 5318 5309 5302
5450 5443 5437 5430 5423 5419 5414 5410 5406 5404 5401 5398 5395 5392 5389 5386 5383 5380 5378 5376 5374 5370 5365 5362 5359 5356 5353 5349 5344 5340 5338 5335 5333 5332 5325 5318 5315 5309 5309 5308 5299 5291 5282
Wind_Speed
28 29 29 30 31 31 32 32 33 34 35 36 37 38 39 39 41 42 43 44 45 46 47 47 48 48 48 48 48 49 50 51 52 52 53 54 54 55 55 55 55 55 55
32 33 34 34 35 36 36 36 37 38 39 40 41 42 43 43 44 45 47 47 48 49 50 51 52 52 52 52 51 51 52 52 53 54 55 55 56 57 57 58 58 58 58
36 37 38 39 40 40 40 41 41 42 43 44 45 46 47 47 48 49 50 51 52 52 53 54 55 55 55 55 54 54 54 54 54 55 56 57 58 58 59 60 60 61 61
41 42 42 43 44 44 44 45 46 46 47 48 49 50 50 51 52 52 53 54 55 55 56 56 57 57 57 57 56 56 55 55 55 56 57 58 58 59 60 60 61 62 63
45 46 46 47 48 48 48 49 50 51 51 52 54 54 54 55 55 56 56 57 57 57 58 58 58 58 58 58 58 57 57 56 56 56 57 58 59 60 61 61 62 63 64
48 49 50 51 52 53 53 54 54 55 55 56 58 57 58 58 58 58 59 59 59 59 59 59 59 59 59 59 59 58 57 57 56 57 57 57 58 59 60 61 62 63 64
49 51 52 53 55 56 57 57 58 58 59 61 62 61 61 61 60 60 61 61 60 60 60 59 60 60 61 60 60 59 58 57 57 56 56 57 57 58 59 60 61 62 63
49 51 53 55 57 59 59 60 61 62 62 64 65 65 64 62 61 62 62 61 61 61 60 60 60 61 61 61 61 61 59 58 57 57 56 56 57 57 58 59 60 61 63
50 52 54 56 58 60 62 63 64 65 65 66 67 68 68 66 65 63 62 61 61 61 61 62 62 61 61 61 62 62 60 59 58 57 56 56 57 57 57 58 59 60 61
52 54 56 58 60 62 63 65 66 67 68 68 68 69 70 70 70 67 63 63 62 61 61 62 63 62 62 62 62 62 61 59 58 58 57 57 57 57 58 58 58 59 61
55 57 59 60 62 63 64 66 68 69 70 70 70 70 71 71 71 71 68 65 64 63 62 63 63 63 63 63 63 63 62 60 58 58 58 57 57 58 58 58 59 60 61
56 58 60 62 64 65 66 68 69 71 71 71 72 72 72 72 71 72 71 69 67 65 65 65 64 63 64 64 65 64 63 61 59 59 59 59 58 58 59 59 60 61 62
54 56 59 60 62 64 66 68 69 70 71 72 73 74 74 73 73 72 72 71 70 68 67 66 65 65 65 66 66 66 64 62 61 60 60 60 60 60 60 61 62 63 64
52 55 57 59 61 62 64 66 67 69 71 72 73 74 74 74 74 73 73 73 72 70 68 66 65 66 67 67 67 66 64 63 62 61 61 61 62 62 63 64 65 65 66
54 56 58 59 61 63 64 65 66 67 69 70 71 73 73 73 74 73 73 73 72 70 67 65 65 65 67 67 67 66 64 63 62 62 61 62 63 64 65 66 67 68 69
58 59 60 61 62 63 64 66 67 67 68 69 69 70 70 71 73 73 72 72 72 71 67 64 65 66 66 66 66 65 64 63 63 63 63 63 64 65 67 68 69 70 71
63 64 64 65 65 66 66 67 67 67 68 68 68 69 69 70 71 71 71 71 71 70 67 64 65 65 65 65 64 65 64 63 63 63 64 65 66 67 68 70 71 72 73
66 67 68 68 68 68 69 69 69 69 69 68 69 69 69 70 69 69 69 69 69 68 67 64 64 64 64 64 64 64 63 63 63 64 65 66 67 68 69 71 72 73 73
70 71 71 71 71 71 71 71 71 70 70 69 69 69 68 68 67 67 67 67 67 67 66 65 63 63 62 62 63 63 63 63 64 65 66 67 68 69 70 71 72 73 74
74 74 74 73 73 72 72 72 72 71 70 70 69 68 67 66 66 66 66 65 65 65 64 63 62 61 61 62 63 62 63 64 65 66 66 67 68 69 70 71 73 73 74
77 76 75 74 74 73 73 73 72 71 70 69 68 67 66 65 65 65 64 63 63 63 62 62 62 62 61 62 63 63 63 64 64 65 66 67 68 68 69 70 71 72 73
77 76 75 74 73 72 72 71 70 69 67 66 65 64 63 63 63 63 62 61 61 61 61 61 61 60 60 62 63 64 64 65 64 64 66 66 67 67 68 69 70 71 73
76 75 73 72 70 69 68 67 67 65 64 62 61 60 60 59 60 59 59 60 60 60 60 60 60 59 60 61 62 63 64 64 63 64 65 65 66 66 67 67 68 69 71
73 71 69 68 66 65 64 63 61 60 58 57 57 56 55 55 56 57 57 58 58 59 60 60 59 59 60 61 62 63 64 64 63 63 65 64 64 65 65 65 65 66 68
69 67 66 64 63 61 60 58 57 55 53 52 52 51 52 52 53 54 54 55 55 56 57 58 59 59 59 60 61 62 63 63 61 60 62 63 62 63 62 61 61 62 64
65 63 61 59 58 56 54 53 52 50 49 48 48 48 49 50 51 52 52 52 52 53 55 55 56 56 57 57 59 60 60 60 59 58 58 60 60 62 60 57 56 57 59
Wind_Direction
277 279 281 282 283 285 286 287 288 289 289 290 290 291 291 292 292 293 293 293 293 292 291 290 289 287 285 282 280 277 274 271 269 267 266 264 263 263 262 262 261 261 261
274 276 279 280 281 283 284 285 286 287 288 289 289 289 290 290 291 291 292 292 292 291 291 290 289 287 285 283 281 279 276 273 270 268 267 265 264 263 262 261 261 261 260
272 274 276 277 279 280 282 283 284 285 286 287 288 288 289 289 290 290 291 291 291 290 290 289 288 287 286 284 282 280 277 274 272 270 268 267 265 264 263 262 261 260 260
270 272 273 275 276 279 280 281 283 284 285 286 286 287 288 289 289 290 290 290 290 290 289 289 288 287 286 285 283 281 278 276 273 271 269 267 265 264 263 262 261 260 260
271 272 273 274 276 277 278 280 281 283 284 285 285 286 287 288 288 289 289 289 290 290 289 289 288 287 286 284 283 281 279 276 274 272 270 268 266 265 264 263 262 261 260
272 273 273 274 275 277 278 279 281 283 284 284 284 285 286 287 288 289 289 289 290 290 289 288 288 286 285 284 283 281 279 277 275 273 272 269 267 266 265 263 262 261 260
272 272 273 274 276 277 279 280 282 282 283 283 285 285 285 287 288 288 288 289 290 289 289 288 287 286 285 284 283 281 280 278 276 275 273 271 269 267 266 265 264 262 261
273 275 276 277 278 279 280 281 282 282 283 284 285 285 285 286 287 287 288 289 289 288 288 287 286 285 284 284 283 281 280 279 277 275 273 272 270 269 267 266 265 264 263
276 276 277 278 278 279 280 281 281 282 282 283 284 285 285 286 285 285 286 286 286 286 286 285 285 284 284 284 283 282 280 279 278 276 274 272 270 269 268 267 266 265 264
276 277 277 277 278 278 279 280 281 281 282 282 283 284 285 285 286 286 285 284 284 284 284 284 283 283 283 283 283 282 280 279 278 276 274 272 270 269 268 268 267 266 265
279 278 278 277 278 278 279 279 280 280 281 282 283 283 283 284 285 286 285 284 283 283 283 282 282 283 283 282 282 281 280 279 277 275 273 272 271 269 269 269 268 267 267
281 281 280 279 279 279 279 279 279 280 280 281 282 282 283 283 284 284 284 284 284 283 282 282 283 283 282 281 281 280 278 277 276 274 273 272 271 270 269 269 269 269 268
285 284 283 282 281 281 280 280 280 280 280 281 281 281 282 282 282 282 283 284 284 283 282 282 283 283 282 281 280 279 278 277 276 275 274 273 272 271 270 270 270 270 270
289 287 286 284 283 282 282 281 281 280 280 280 280 280 281 281 281 281 281 282 283 283 282 282 282 282 282 281 280 278 277 276 275 274 274 273 273 272 272 272 271 271 271
293 291 290 288 286 285 283 282 282 281 281 280 280 279 280 280 280 280 280 281 282 282 282 282 282 282 282 281 279 278 277 276 275 275 274 274 274 274 274 273 273 273 272
294 292 291 290 288 287 285 284 284 283 282 281 280 279 279 279 278 279 279 280 280 282 282 281 281 280 280 280 279 278 277 276 275 275 275 275 275 275 275 274 274 274 273
294 293 291 290 289 287 286 285 285 284 282 281 280 279 279 278 278 278 278 279 280 280 281 280 280 279 279 278 277 277 277 276 276 276 276 276 276 276 276 275 275 275 274
294 293 291 290 288 287 286 285 284 283 282 282 280 280 279 278 278 278 278 278 278 278 279 278 278 278 277 277 276 277 277 277 276 276 277 277 277 277 276 276 276 275 275
295 293 292 290 288 287 285 284 283 282 282 281 280 280 279 278 278 278 277 277 277 277 278 278 277 277 276 276 276 276 276 276 276 277 277 277 277 277 277 277 277 276 276
296 294 293 291 289 286 285 283 282 281 280 280 280 279 278 278 278 277 277 277 277 277 277 277 277 276 275 275 275 276 275 276 276 277 277 277 277 277 278 278 278 278 278
297 295 293 290 288 286 284 283 282 281 280 280 279 278 278 277 276 276 277 277 277 277 277 276 276 276 275 275 275 275 275 276 276 277 278 278 278 278 279 279 279 279 279
297 295 293 291 289 287 285 284 283 282 281 280 279 278 277 276 276 275 275 275 276 276 276 276 276 276 276 275 275 275 275 276 276 277 278 278 279 279 279 279 280 280 280
296 294 293 291 289 288 286 285 284 283 282 280 279 278 277 276 276 275 275 275 275 275 275 275 276 276 276 276 276 276 276 277 277 277 277 279 279 280 280 280 281 281 281
296 294 292 291 290 288 286 285 284 284 283 281 279 278 277 277 276 276 276 276 277 277 276 276 276 276 276 276 276 277 277 277 278 278 279 279 280 280 280 282 283 283 282
296 294 293 291 290 289 287 286 285 285 283 282 280 279 278 277 277 277 277 277 277 277 277 277 277 277 277 277 277 278 278 278 278 279 280 281 281 281 282 284 284 284 283
296 295 294 293 291 290 289 288 287 286 284 282 281 280 279 278 278 278 279 279 278 278 278 279 279 279 279 279 278 278 279 279 280 280 281 282 283 283 284 285 285 284 284